Regional Weather Roundup
Issued by NWS

Home | Current Version | Previous Version | Graphics & Text | Print | Product List | Glossary On
Versions: 1 2 3 4 5 6 7 8 9 10 11 12 13 14 15 16 17 18 19 20 21 22 23 24 25 26 27 28 29 30 31 32 33 34 35 36 37 38 39 40 41 42 43 44 45 46 47 48 49 50
000
ASUS43 KLOT 302203
RWRIL

ILLINOIS REGIONAL WEATHER ROUNDUP
NATIONAL WEATHER SERVICE CHICAGO/ROMEOVILLE IL
500 PM CDT SAT JUL 30 2016

NOTE: "FAIR" INDICATES FEW OR NO CLOUDS BELOW 12,000 FEET WITH NO
SIGNIFICANT WEATHER AND/OR OBSTRUCTIONS TO VISIBILITY.

* THESE STATIONS ARE NOT UNDER NWS QUALITY CONTROL. THEY ALSO MAY NOT
  REPORT WEATHER SUCH AS PRECIPITATION OR FOG.

ILZ001-002-007-009-015-016-024-302300-
NORTHWEST ILLINOIS

CITY           SKY/WX    TMP DP  RH WIND       PRES   REMARKS
MOLINE         MOSUNNY   82  65  56 CALM      29.96F HX  84
STERLING*      PTSUNNY   78  69  73 E6        29.97F HX  80
SAVANNA*       MOSUNNY   81  66  60 NE7       29.97S HX  83
$$

ILZ003-004-008-010-011-017-018-302300-
NORTH CENTRAL ILLINOIS

CITY           SKY/WX    TMP DP  RH WIND       PRES   REMARKS
ROCKFORD       MOSUNNY   81  62  52 NE9       29.99S HX  82
FREEPORT*      SUNNY     78  60  53 E8        30.01S HX  80
ROCHELLE*      MOSUNNY   78  66  68 NE7       29.99S
DE KALB*       MOSUNNY   79  66  65 NE9       29.99S HX  81
$$

ILZ005-006-012>014-019>023-302300-
NORTHEAST ILLINOIS

CITY           SKY/WX    TMP DP  RH WIND       PRES   REMARKS
CHICAGO-OHARE  PTSUNNY   76  65  68 NE14      29.98S
CHICAGO-MIDWAY PTSUNNY   78  64  61 N14       29.97S HX  80
AURORA         PTSUNNY   78  65  63 NE8       29.97F HX  80
LANSING*       PTSUNNY   75  65  70 N9        29.98R
WAUKEGAN       PTSUNNY   72  63  73 NE10      30.00S
DUPAGE AIRPORT MOSUNNY   79  64  60 NE8       29.97S HX  81
KANKAKEE*      TSTM      73  70  92 N3        29.97S
WHEELING       PTSUNNY   74  63  68 NE10      30.00F
MORRIS*        CLOUDY    78  67  69 CALM      29.95F HX  80
NORTHERLY ISL    N/A     75  66  73 N7          N/A
$$

LMZ740>746-302300-
SOUTHERN LAKE MICHIGAN

STATION/POSITION SKY/WX   TEMP    WIND        PRES    VSBY  WAVE
                          AIR SEA DIR/SP/G                  HT/PER
                          (F)     (DEG/KT/KT) (MB)    (MI)  (FT/S)
SOUTHERN BUOY              71 74   40/ 10/ 12 1015.2          1/ 4
WILMETTE HARBOR            71 72   50/ 10/ 14   N/A           3/ 4
HARRISON CRIB              72      10/ 13/ 14   N/A
BURNHAM HARBOR             74      10/ 11/ 12   N/A
CALUMET HARBOR             73     350/ 11/ 14 1014.7F
BURNS HARBOR               70      30/ 12/ 16 1015.6S
MICHIGAN CITY              70     350/ 14/ 15   N/A
MICHIGAN CITY 6N           71 72   10/ 14/ 16   N/A           2/ 5
ST. JOSEPH                 71 72  360/ 14/ 16 1014.7F         2/ 3
$$

ILZ025>027-034>036-040-047-049-050-058-095>099-302300-
WEST-CENTRAL ILLINOIS

CITY           SKY/WX    TMP DP  RH WIND       PRES   REMARKS
QUINCY         PTSUNNY   80  67  64 VRB7      29.97F HX  82
GALESBURG*     SUNNY     80  66  62 W3        29.97R HX  82
MACOMB*        MOSUNNY   80  68  66 W6        29.99S HX  82
JACKSONVILLE*  MOSUNNY   81  66  60 W7        29.96S HX  83
$$

ILZ028>032-037-038-041>044-048-051>054-059>061-302300-
CENTRAL ILLINOIS

CITY           SKY/WX    TMP DP  RH WIND       PRES   REMARKS
PONTIAC        CLOUDY    76  72  85 N8        29.96
BLOOMINGTON    PTSUNNY   75  69  81 NE13      29.97R
DECATUR        PTSUNNY   81  65  58 W7        29.96S HX  83
PEORIA         SUNNY     82  69  64 N7        29.95F HX  85
LACON*         DRIZZLE   75  71  85 E7        29.96S
LINCOLN*       SUNNY     81  68  65 W6        29.95S HX  84
SPRINGFIELD    PTSUNNY   81  67  62 W7        29.96S HX  83
TAYLORVILLE    SUNNY     80  68  65 MISG      29.97S HX  82
$$

ILZ033-039-045-046-055>057-062-063-302300-
EAST-CENTRAL ILLINOIS

CITY           SKY/WX    TMP DP  RH WIND       PRES   REMARKS
CHAMPAIGN      SUNNY     80  67  64 W9        29.95F HX  82
MATTOON        PTSUNNY   80  65  59 W10       29.95F HX  82
PARIS*         MOSUNNY   80  69  68 CALM      29.96F HX  83
$$

ILZ079-100>102-302300-
SOUTHWEST ILLINOIS

CITY           SKY/WX    TMP DP  RH WIND       PRES   REMARKS
ALTON          MOSUNNY   81  68  65 NW12      29.97F HX  83
BELLEVILLE     SUNNY     84  69  58 VRB5      29.95S HX  88
CAHOKIA*       PTSUNNY   85  66  53 N9        29.95F HX  87
SPARTA*        PTSUNNY   85  67  54 SW6       29.97S HX  88
$$

ILZ064>066-069>071-074>076-080>082-084>086-088>090-092>094-302300-
SOUTH-CENTRAL ILLINOIS

CITY           SKY/WX    TMP DP  RH WIND       PRES   REMARKS
CARBONDALE     SUNNY     86  66  51 N5        29.96S HX  88
CAIRO*         MOSUNNY   85  74  69 CALM      29.95F HX  92
EFFINGHAM*     SUNNY     82  68  62 W9        29.98S HX  85
MT. VERNON     MOSUNNY   84  64  51 CALM      29.96S HX  86
CENTRALIA*     MOSUNNY   84  69  59 W6        29.96R HX  87
SALEM*         MOSUNNY   84  68  58 NW8       29.96S HX  87
METROPOLIS*    DRIZZLE   80  72  77 SW7       29.97S HX  83
$$

ILZ067-068-072-073-078-083-087-091-302300-
SOUTHEAST ILLINOIS

CITY           SKY/WX    TMP DP  RH WIND       PRES   REMARKS
LAWRENCEVILLE  MOSUNNY   85  66  53 W8        29.95F HX  87
FLORA*         MOSUNNY   85  69  58 NW8       29.96S HX  89
FAIRFIELD*     MOSUNNY   82  67  62 CALM      29.95R HX  84
HARRISBURG*    SUNNY     85  71  62 W7        29.96S HX  91
ROBINSON*      PTSUNNY   81  67  64 NW10      29.96S HX  83
CARMI*         MOSUNNY   84  72  67 W6        29.95S HX  89
$$

ABBREVIATIONS USED IN REMARKS
   TC - TEMPERATURE IN CELSIUS
  WCI - WIND CHILL INDEX
   HX - HEAT INDEX
  VSB - VISIBILITY
$$





USA.gov is the U.S. government's official web portal to all federal, state and local government web resources and services.